Powrót do katalogu

KUIPER-00053

AktywnyŁącznośćLEO
NORAD 64513·PAYLOAD·🇺🇸 United States

Wystrzelony Jun 23, 2025 z Cape Canaveral Space Force Station

Loading…

Następne Przeloty (najbliższe 24 godziny)

TLE

ŚwieżeSource: CelesTrak SupGP

Epoka: Sep 14, 2026, 20:51 UTC

1 64513C 25134P   26257.86907407  .00000180  00000+0  22599-4 0  2573
2 64513  51.8989 104.6543 0002635 104.6081 210.6581 14.81705921    12

Śledź KUIPER-00053 w czasie rzeczywistym z AllMySat

Download on the App Store